Regional Weather Roundup
Issued by NWS Nashville, TN

Home | Current Version | Previous Version | Text Only | Print | Product List | Glossary On
Versions: 1 2 3 4 5 6 7 8 9 10 11 12 13 14 15 16 17 18 19 20 21 22 23 24 25 26 27 28 29 30 31 32 33 34 35 36 37 38 39 40 41 42 43 44 45 46 47 48 49 50
227
ASUS44 KOHX 271610
RWROHX
MIDDLE TENNESSEE HOURLY WEATHER ROUNDUP
NATIONAL WEATHER SERVICE NASHVILLE TN
1100 AM CDT FRI MAY 27 2016

NOTE: "FAIR" INDICATES FEW OR NO CLOUDS BELOW 12,000 FEET WITH
NO SIGNIFICANT WEATHER AND/OR OBSTRUCTIONS TO VISIBILITY.

* THESE REPORTS ARE NOT UNDER NWS QUALITY CONTROL AND MAY NOT
  REPORT WEATHER SUCH AS PRECIPITATION AND FOG.


TNZ005>011-023>034-057-059-062>066-078-080-271700
...NORTHERN MIDDLE TENNESSEE...

CITY           SKY/WX    TMP DP  RH WIND       PRES   REMARKS
CLARKSVILLE    MOSUNNY   79  67  66 S12       30.01F
CROSSVILLE     MOSUNNY   78  64  61 VRB5      30.15R
DICKSON        MOSUNNY   79  66  65 SW9       30.03S
NASHVILLE      PTSUNNY   84  62  47 S12       30.05S
SMYRNA         PTSUNNY   82  64  54 S7        30.06S
SPARTA         MOSUNNY   82  66  57 SW10      30.09S
$$
TNZ056-058-060-061-075>077-079-093>097-271700
...SOUTHERN MIDDLE TENNESSEE...

CITY           SKY/WX    TMP DP  RH WIND       PRES   REMARKS
COLUMBIA       SUNNY     81  72  74 S9        30.03F
FAYETTEVILLE   SUNNY     82  63  51 S10       30.08S
LEWISBURG      MOSUNNY   85  66  52 VRB7      30.05F
MCMINNVILLE    MOSUNNY   82  68  61 S7        30.09S
SHELBYVILLE    SUNNY     84  64  51 S13       30.08S
TULLAHOMA      SUNNY     81  63  54 S9        30.10S
WINCHESTER     MOSUNNY   82  59  44 SW10      30.09S
$$


...KEY TO REMARKS...
VSB - VISIBILITY IN MILES
WCI - WIND CHILL INDEX
HX  - HEAT INDEX





USA.gov is the U.S. government's official web portal to all federal, state and local government web resources and services.